Location: Mercogliano
(40.9167°N, 14.7333°E)
Time: 07:47:43
(UTC+00:00)

CZ-2C R/B - Pass Details

Date: 23 January 2021
Orbit: 785 x 870 km, 98.2° (Epoch: 08 March)

Event Time Altitude Azimuth Distance (km) Brightness Sun altitude
Exits shadow 16:48:09 - 55° (NE) 2,641 4.7 -8.0°
Reaches altitude 10° 16:48:54 10° 62° (ENE) 2,508 4.5 -8.1°
Maximum altitude 16:51:22 13° 89° (E) 2,301 4.4 -8.6°
Drops below altitude 10° 16:53:51 10° 115° (ESE) 2,511 4.7 -9.0°
Sets 16:57:43 0° 142° (SE) 3,445 5.7 -9.7°
